User: anonymous   Login
Location: NJAA Observatory
(40.6819°N, 74.8979°W)
Time: 13:50:05
(UTC-04:00)
Language:

Cosmos 2082 - Orbit

View from above orbital plane
View from above orbital plane
View from above satellite
View from above satellite

Ground track
Ground track

The orbit data is extracted from the following two-line orbital elements,

1 20624U 90046A   16176.50594975  .00000312  00000-0  18795-3 0  9997
2 20624  71.0406 243.1928 0016176 218.6114 141.3853 14.14201393346621
Epoch (UTC): 24 June 2016 12:08:34
Eccentricity: 0.0016176
inclination: 71.0406°
perigee height: 833 km
apogee height: 857 km
right ascension of ascending node: 243.1928°
argument of perigee: 218.6114°
revolutions per day: 14.14201393
mean anomaly at epoch: 141.3853°
orbit number at epoch: 34662

The dashed part of the orbit path shows where the satellite is in the earth's shadow,  

DLR